GW4434 Weather Reports


Display with metric or nautical units.
time (UTC)temp
F
wind
direction
speed
MPH
gust
MPH
rain 1hr
in
rain 24hr
in
rain mn
in
humidity
%
barometer
mb
20260508204956 73 201 1.0 1.0 0.00 0.00 0.00 37 1016.2
20260508204454 73 166 0.0 0.0 0.00 0.00 0.00 37 1016.3
20260508203949 74 166 0.0 0.0 0.00 0.00 0.00 36 1016.2
20260508203445 73 166 0.0 0.0 0.00 0.00 0.00 35 1016.5
20260508202941 73 188 1.0 1.0 0.00 0.00 0.00 39 1016.5
20260508202439 73 199 1.0 1.0 0.00 0.00 0.00 35 1016.5
20260508201935 74 205 1.0 1.0 0.00 0.00 0.00 35 1016.5
20260508201432 74 169 0.0 0.0 0.00 0.00 0.00 33 1016.4
20260508200929 74 184 0.0 1.0 0.00 0.00 0.00 35 1016.2
20260508200426 75 188 1.0 1.0 0.00 0.00 0.00 34 1016.5
20260508195921 75 184 0.0 1.0 0.00 0.00 0.00 33 1016.6
20260508195418 75 152 0.0 1.0 0.00 0.00 0.00 34 1016.5
20260508194914 75 153 0.0 0.0 0.00 0.00 0.00 36 1016.4
20260508194412 75 153 0.0 1.0 0.00 0.00 0.00 32 1016.5
20260508193908 75 183 0.0 1.0 0.00 0.00 0.00 34 1016.7
20260508193405 75 191 1.0 1.0 0.00 0.00 0.00 33 1016.8
20260508192902 75 168 0.0 1.0 0.00 0.00 0.00 35 1017.1
20260508192358 75 188 0.0 1.0 0.00 0.00 0.00 35 1017.2
20260508191856 75 162 0.0 0.0 0.00 0.00 0.00 37 1017.1
20260508191353 76 188 1.0 1.0 0.00 0.00 0.00 31 1016.9
20260508190850 76 179 0.0 0.0 0.00 0.00 0.00 31 1017.2
20260508190346 76 206 0.0 0.0 0.00 0.00 0.00 31 1017.2
20260508185843 76 151 0.0 1.0 0.00 0.00 0.00 30 1017.4
20260508185340 76 193 0.0 3.0 0.00 0.00 0.00 31 1017.7
20260508184838 76 298 2.0 3.0 0.00 0.00 0.00 31 1017.6
20260508184335 76 208 1.0 2.0 0.00 0.00 0.00 32 1017.7
20260508183831 76 191 0.0 1.0 0.00 0.00 0.00 30 1017.7
20260508183328 76 170 0.0 1.0 0.00 0.00 0.00 30 1017.7
20260508182824 76 167 1.0 1.0 0.00 0.00 0.00 31 1017.9
20260508182321 76 155 0.0 1.0 0.00 0.00 0.00 32 1017.8
20260508181816 76 157 1.0 1.0 0.00 0.00 0.00 28 1018.0
20260508181314 77 172 0.0 1.0 0.00 0.00 0.00 29 1017.9
20260508180811 76 214 1.0 2.0 0.00 0.00 0.00 31 1018.1
20260508180308 76 209 1.0 1.0 0.00 0.00 0.00 32 1018.3
20260508175804 75 172 0.0 1.0 0.00 0.00 0.00 31 1018.3
20260508175300 75 154 1.0 1.0 0.00 0.00 0.00 33 1018.2
20260508174758 75 226 0.0 0.0 0.00 0.00 0.00 34 1018.2
20260508174255 74 236 1.0 2.0 0.00 0.00 0.00 35 1018.1
20260508173746 73 200 0.0 2.0 0.00 0.00 0.00 36 1018.2
20260508173242 74 185 0.0 2.0 0.00 0.00 0.00 33 1018.3
20260508172739 75 159 0.0 1.0 0.00 0.00 0.00 34 1018.4
20260508172237 74 184 0.0 2.0 0.00 0.00 0.00 35 1018.4
20260508171733 74 212 1.0 2.0 0.00 0.00 0.00 34 1018.5
20260508171229 74 195 1.0 1.0 0.00 0.00 0.00 34 1018.6
20260508170726 75 152 1.0 1.0 0.00 0.00 0.00 34 1018.7
20260508170224 74 163 1.0 2.0 0.00 0.00 0.00 39 1018.9
20260508165720 74 161 0.0 1.0 0.00 0.00 0.00 34 1019.0
20260508165217 75 164 0.0 1.0 0.00 0.00 0.00 36 1018.9
20260508164714 75 170 0.0 0.0 0.00 0.00 0.00 35 1019.1
20260508164210 74 170 0.0 0.0 0.00 0.00 0.00 39 1019.3
20260508163709 74 238 1.0 2.0 0.00 0.00 0.00 34 1019.4
20260508163206 73 192 0.0 1.0 0.00 0.00 0.00 36 1019.4
20260508162701 72 198 1.0 1.0 0.00 0.00 0.00 41 1019.5
20260508162159 71 161 0.0 1.0 0.00 0.00 0.00 36 1019.4
20260508161656 70 150 0.0 1.0 0.00 0.00 0.00 40 1019.3
20260508161153 71 150 1.0 2.0 0.00 0.00 0.00 38 1019.5
20260508160651 71 138 0.0 1.0 0.00 0.00 0.00 40 1019.8
20260508160149 71 152 0.0 1.0 0.00 0.00 0.00 41 1019.8
20260508155645 70 147 0.0 0.0 0.00 0.00 0.00 41 1019.9
20260508155142 70 158 0.0 1.0 0.00 0.00 0.00 40 1019.9
20260508154639 71 149 0.0 2.0 0.00 0.00 0.00 39 1020.2
20260508154136 70 155 0.0 0.0 0.00 0.00 0.00 42 1020.2
20260508153633 69 162 0.0 1.0 0.00 0.00 0.00 41 1020.1
20260508153130 68 168 0.0 0.0 0.00 0.00 0.00 42 1020.2
20260508152627 68 145 0.0 0.0 0.00 0.00 0.00 43 1020.2
20260508152121 68 145 0.0 0.0 0.00 0.00 0.00 41 1020.2
20260508151619 68 145 0.0 1.0 0.00 0.00 0.00 42 1020.0
20260508151115 68 145 0.0 0.0 0.00 0.00 0.00 52 1020.1
20260508150612 67 145 0.0 1.0 0.00 0.00 0.00 48 1019.9
20260508150109 67 145 0.0 0.0 0.00 0.00 0.00 44 1019.9
20260508145605 67 151 0.0 0.0 0.00 0.00 0.00 49 1019.7
20260508145102 68 154 0.0 0.0 0.00 0.00 0.00 50 1020.0
20260508144600 68 152 0.0 0.0 0.00 0.00 0.00 48 1019.8
20260508144057 67 165 0.0 1.0 0.00 0.00 0.00 50 1020.1
20260508143554 67 142 1.0 1.0 0.00 0.00 0.00 51 1020.1
20260508143051 67 146 0.0 0.0 0.00 0.00 0.00 54 1020.2
20260508142547 66 147 0.0 1.0 0.00 0.00 0.00 55 1020.2
20260508142043 65 147 0.0 0.0 0.00 0.00 0.00 52 1020.1
20260508141541 65 139 0.0 1.0 0.00 0.00 0.00 57 1020.1
20260508141038 64 151 0.0 0.0 0.00 0.00 0.00 61 1020.4
20260508140536 64 152 0.0 0.0 0.00 0.00 0.00 62 1020.2
20260508140032 64 160 0.0 0.0 0.00 0.00 0.00 63 1020.3
20260508135527 63 161 0.0 0.0 0.00 0.00 0.00 65 1020.3
20260508135024 62 179 1.0 2.0 0.00 0.00 0.00 65 1020.5
20260508134521 62 150 0.0 0.0 0.00 0.00 0.00 68 1020.4
20260508134018 62 150 0.0 0.0 0.00 0.00 0.00 70 1020.4
20260508133514 61 150 0.0 0.0 0.00 0.00 0.00 74 1020.4
20260508133011 60 150 0.0 0.0 0.00 0.00 0.00 73 1020.1
20260508132509 60 150 0.0 0.0 0.00 0.00 0.00 78 1020.2
20260508132006 59 150 0.0 0.0 0.00 0.00 0.00 81 1020.1
20260508131501 59 150 0.0 0.0 0.00 0.00 0.00 81 1020.2
20260508130958 59 150 0.0 0.0 0.00 0.00 0.00 86 1020.1
20260508130455 59 150 0.0 0.0 0.00 0.00 0.00 87 1020.0
20260508125950 59 150 0.0 0.0 0.00 0.00 0.00 87 1019.8
20260508125447 58 150 0.0 0.0 0.00 0.00 0.00 87 1019.9
20260508124945 58 150 0.0 0.0 0.00 0.00 0.00 87 1019.8
20260508124442 57 150 0.0 0.0 0.00 0.00 0.00 87 1019.6
20260508123939 57 151 0.0 0.0 0.00 0.00 0.00 87 1019.7
20260508123439 57 151 0.0 0.0 0.00 0.00 0.00 87 1019.7
20260508122934 56 150 0.0 0.0 0.00 0.00 0.00 87 1019.6
20260508122431 56 150 0.0 0.0 0.00 0.00 0.00 87 1019.6
20260508121928 55 150 0.0 0.0 0.00 0.00 0.00 87 1019.6
20260508121427 56 150 0.0 0.0 0.00 0.00 0.00 87 1019.6
20260508120924 55 150 0.0 0.0 0.00 0.00 0.00 87 1019.8
20260508120422 55 150 0.0 0.0 0.00 0.00 0.00 87 1019.4
20260508115919 55 150 0.0 0.0 0.00 0.00 0.00 87 1019.5
20260508115418 54 150 0.0 0.0 0.00 0.00 0.00 87 1019.4
20260508114914 54 150 0.0 0.0 0.00 0.00 0.00 87 1019.3
20260508114410 54 150 0.0 0.0 0.00 0.00 0.00 87 1019.2
20260508113906 54 150 0.0 0.0 0.00 0.00 0.00 87 1019.1
20260508113404 53 150 0.0 0.0 0.00 0.00 0.00 87 1018.9
20260508112901 53 150 0.0 0.0 0.00 0.00 0.00 87 1018.7
20260508112358 53 150 0.0 0.0 0.00 0.00 0.00 87 1018.5
20260508111855 53 150 0.0 0.0 0.00 0.00 0.00 87 1018.5
20260508111352 53 150 0.0 0.0 0.00 0.00 0.00 87 1018.4
20260508110849 53 150 0.0 0.0 0.00 0.00 0.00 87 1018.4
20260508110347 53 150 0.0 0.0 0.00 0.00 0.00 87 1018.4
20260508105846 53 150 0.0 0.0 0.00 0.00 0.00 87 1018.3
20260508105343 53 150 0.0 0.0 0.00 0.00 0.00 87 1018.2
20260508104840 53 150 0.0 0.0 0.00 0.00 0.00 87 1018.0
20260508104337 53 150 0.0 0.0 0.00 0.00 0.00 87 1018.2
20260508103835 53 150 0.0 0.0 0.00 0.00 0.00 87 1017.9
20260508103331 53 150 0.0 0.0 0.00 0.00 0.00 87 1017.8
20260508102828 53 150 0.0 0.0 0.00 0.00 0.00 87 1017.8
20260508102327 53 150 0.0 0.0 0.00 0.00 0.00 87 1017.6
20260508101823 53 150 0.0 0.0 0.00 0.00 0.00 87 1017.4
20260508101321 53 150 0.0 0.0 0.00 0.00 0.00 87 1017.3
20260508100818 53 150 0.0 0.0 0.00 0.00 0.00 87 1017.3
20260508100317 53 150 0.0 0.0 0.00 0.00 0.00 87 1017.2
20260508095812 53 150 0.0 0.0 0.00 0.00 0.00 87 1017.2
20260508095310 53 150 0.0 0.0 0.00 0.00 0.00 87 1017.1
20260508094806 53 150 0.0 0.0 0.00 0.00 0.00 87 1017.3
20260508094304 54 150 0.0 0.0 0.00 0.00 0.00 87 1017.1
20260508093801 54 150 0.0 0.0 0.00 0.00 0.00 87 1017.1
20260508093258 54 150 0.0 0.0 0.00 0.00 0.00 87 1017.1
20260508092755 54 150 0.0 0.0 0.00 0.00 0.00 87 1016.9
20260508092253 55 150 0.0 0.0 0.00 0.00 0.00 87 1016.8
20260508091751 55 150 0.0 0.0 0.00 0.00 0.00 87 1016.9
20260508091247 55 150 0.0 0.0 0.00 0.00 0.00 87 1017.0
20260508090745 55 150 0.0 0.0 0.00 0.00 0.00 87 1016.8
20260508090243 55 150 0.0 0.0 0.00 0.00 0.00 87 1016.8
20260508085738 55 150 0.0 0.0 0.00 0.00 0.00 87 1016.9
20260508085236 55 150 0.0 0.0 0.00 0.00 0.00 87 1016.9
20260508084731 55 150 0.0 0.0 0.00 0.00 0.00 87 1017.0
20260508084230 55 150 0.0 0.0 0.00 0.00 0.00 87 1016.8
20260508083727 55 150 0.0 0.0 0.00 0.00 0.00 87 1017.0
20260508083225 55 150 0.0 0.0 0.00 0.00 0.00 87 1016.7
20260508082719 55 150 0.0 0.0 0.00 0.00 0.00 87 1016.8
20260508082217 56 150 0.0 0.0 0.00 0.00 0.00 87 1016.7
20260508081714 56 150 0.0 0.0 0.00 0.00 0.00 87 1016.7
20260508081210 56 150 0.0 0.0 0.00 0.00 0.00 87 1016.7
20260508080708 56 150 0.0 0.0 0.00 0.00 0.00 87 1016.7
20260508080206 56 150 0.0 0.0 0.00 0.00 0.00 87 1016.7
20260508075702 56 150 0.0 0.0 0.00 0.00 0.00 87 1016.7
20260508075159 57 150 0.0 0.0 0.00 0.00 0.00 87 1016.7
20260508074657 57 150 0.0 0.0 0.00 0.00 0.00 87 1016.6
20260508074154 57 150 0.0 0.0 0.00 0.00 0.00 87 1016.4
20260508073651 57 150 0.0 0.0 0.00 0.00 0.00 87 1016.3
20260508073149 57 150 0.0 0.0 0.00 0.00 0.00 87 1016.3
20260508072644 57 150 0.0 0.0 0.00 0.00 0.00 86 1016.5
20260508072141 57 150 0.0 0.0 0.00 0.00 0.00 86 1016.3
20260508071639 57 150 0.0 0.0 0.00 0.00 0.00 86 1016.4
20260508071137 57 150 0.0 0.0 0.00 0.00 0.00 86 1016.4
20260508070634 58 150 0.0 0.0 0.00 0.00 0.00 86 1016.2
20260508070133 58 150 0.0 0.0 0.00 0.00 0.00 86 1016.2
20260508065630 58 150 0.0 0.0 0.00 0.00 0.00 86 1016.2
20260508065127 58 150 0.0 0.0 0.00 0.00 0.00 86 1016.3
20260508064625 58 150 0.0 0.0 0.00 0.00 0.00 86 1016.1
20260508064123 58 150 0.0 0.0 0.00 0.00 0.00 85 1016.0
20260508063620 59 150 0.0 0.0 0.00 0.00 0.00 85 1016.1
20260508063119 59 150 0.0 0.0 0.00 0.00 0.00 85 1015.9
20260508062615 59 150 0.0 0.0 0.00 0.00 0.00 85 1016.0
20260508062112 59 150 0.0 0.0 0.00 0.00 0.00 85 1016.1
20260508061609 59 150 0.0 0.0 0.00 0.00 0.00 84 1016.3
20260508061106 59 150 0.0 0.0 0.00 0.00 0.00 84 1016.2
20260508060603 60 150 0.0 0.0 0.00 0.00 0.00 84 1016.2
20260508060100 60 150 0.0 0.0 0.00 0.00 0.00 84 1016.4
20260508055556 60 150 0.0 0.0 0.00 0.00 0.00 84 1016.5
20260508055053 60 150 0.0 0.0 0.00 0.00 0.00 84 1016.3
20260508054549 60 150 0.0 0.0 0.00 0.00 0.00 83 1016.3
20260508054047 60 150 0.0 0.0 0.00 0.00 0.00 83 1016.4
20260508053543 60 150 0.0 0.0 0.00 0.00 0.00 83 1016.4
20260508053042 61 150 0.0 0.0 0.00 0.00 0.00 82 1016.5
20260508052539 61 150 0.0 0.0 0.00 0.00 0.00 82 1016.4
20260508052035 61 150 0.0 0.0 0.00 0.00 0.00 82 1016.3
20260508051532 61 150 0.0 0.0 0.00 0.00 0.00 81 1016.2
20260508051027 61 150 0.0 0.0 0.00 0.00 0.00 82 1016.3
20260508050524 62 150 0.0 0.0 0.00 0.00 0.00 81 1016.2
20260508050021 62 150 0.0 0.0 0.00 0.00 0.00 81 1016.3
20260508045517 62 150 0.0 0.0 0.00 0.00 0.00 82 1016.2
20260508045015 62 150 0.0 0.0 0.00 0.00 0.00 82 1016.0
20260508044512 62 150 0.0 0.0 0.00 0.00 0.00 82 1016.2
20260508044008 62 150 0.0 0.0 0.00 0.00 0.00 81 1016.2
20260508043505 62 150 0.0 0.0 0.00 0.00 0.00 81 1015.9
20260508043001 62 150 0.0 0.0 0.00 0.00 0.00 81 1015.9
20260508042459 62 150 0.0 0.0 0.00 0.00 0.00 81 1015.9
20260508041956 62 150 0.0 0.0 0.00 0.00 0.00 80 1015.8
20260508041452 62 150 0.0 0.0 0.00 0.00 0.00 80 1015.8
20260508040949 63 150 0.0 0.0 0.00 0.00 0.00 80 1015.8
20260508040446 63 150 0.0 0.0 0.00 0.00 0.00 79 1015.9
20260508035944 63 150 0.0 0.0 0.00 1.54 1.54 78 1015.6
20260508035440 63 150 0.0 0.0 0.00 1.54 1.54 77 1015.7
20260508034937 64 150 0.0 0.0 0.00 1.54 1.54 76 1015.8
20260508034435 64 150 0.0 0.0 0.00 1.54 1.54 76 1015.6
20260508033931 64 150 0.0 0.0 0.00 1.54 1.54 75 1015.7
20260508033430 64 151 0.0 0.0 0.00 1.54 1.54 75 1015.6
20260508032926 64 151 0.0 0.0 0.00 1.54 1.54 75 1015.7
20260508032424 64 157 0.0 0.0 0.00 1.54 1.54 74 1015.6
20260508031920 65 157 0.0 0.0 0.00 1.54 1.54 73 1015.6
20260508031418 65 155 0.0 0.0 0.00 1.54 1.54 72 1015.4
20260508030913 65 156 0.0 0.0 0.00 1.54 1.54 73 1015.5
20260508030411 65 146 0.0 0.0 0.00 1.54 1.54 73 1015.5
20260508025908 65 149 0.0 0.0 0.00 1.54 1.54 74 1015.5
20260508025404 65 149 0.0 0.0 0.00 1.54 1.54 75 1015.1
20260508024901 66 149 0.0 0.0 0.00 1.54 1.54 75 1015.2
20260508024358 66 149 0.0 0.0 0.00 1.54 1.54 75 1015.1
20260508023855 66 149 0.0 0.0 0.00 1.54 1.54 73 1014.9
20260508023352 66 149 0.0 0.0 0.00 1.54 1.54 72 1014.9
20260508022848 67 149 0.0 0.0 0.00 1.54 1.54 73 1015.0
20260508022344 67 149 0.0 0.0 0.00 1.54 1.54 73 1014.9
20260508021841 67 157 0.0 1.0 0.00 1.54 1.54 73 1014.8
20260508021337 68 172 0.0 0.0 0.00 1.54 1.54 73 1014.5
20260508020833 68 175 0.0 0.0 0.00 1.54 1.54 71 1014.4
20260508020331 68 165 0.0 1.0 0.00 1.54 1.54 73 1014.2
20260508015828 68 160 0.0 0.0 0.00 1.54 1.54 72 1014.3
20260508015326 68 156 0.0 1.0 0.00 1.54 1.54 72 1014.0
20260508014822 68 127 0.0 1.0 0.00 1.54 1.54 74 1013.9
20260508014319 68 151 0.0 3.0 0.00 1.54 1.54 78 1013.8
20260508013814 68 202 0.0 0.0 0.00 1.54 1.54 82 1013.6
20260508013311 68 202 0.0 0.0 0.00 1.54 1.54 81 1013.4
20260508012809 68 202 0.0 0.0 0.00 1.54 1.54 80 1013.0
20260508012307 68 202 0.0 0.0 0.00 1.54 1.54 80 1012.8
20260508011804 68 202 0.0 0.0 0.00 1.54 1.54 80 1012.8
20260508011301 68 202 0.0 0.0 0.00 1.54 1.54 79 1012.7
20260508010758 69 202 0.0 0.0 0.00 1.54 1.54 77 1012.5
20260508010256 69 202 0.0 0.0 0.00 1.54 1.54 77 1012.3
20260508005752 69 202 0.0 0.0 0.00 1.54 1.54 78 1012.2
20260508005249 70 202 0.0 0.0 0.00 1.54 1.54 76 1012.1
20260508004744 70 202 0.0 0.0 0.00 1.54 1.54 75 1011.9
20260508004242 70 202 0.0 0.0 0.00 1.54 1.54 74 1011.6
20260508003738 70 202 0.0 1.0 0.00 1.54 1.54 73 1011.6
20260508003235 71 202 1.0 1.0 0.00 1.54 1.54 73 1011.4
20260508002732 71 202 0.0 1.0 0.00 1.54 1.54 72 1011.4
20260508002229 71 202 0.0 1.0 0.00 1.54 1.54 72 1011.4
20260508001725 72 199 0.0 1.0 0.00 1.54 1.54 71 1011.2
20260508001220 72 199 0.0 1.0 0.00 1.54 1.54 71 1011.0
20260508000717 72 200 1.0 1.0 0.00 1.54 1.54 71 1011.0
20260508000214 72 198 0.0 0.0 0.00 1.54 1.54 69 1011.0
20260507235710 73 208 1.0 1.0 0.00 1.54 1.54 69 1010.9
20260507235208 73 198 1.0 1.0 0.00 1.54 1.54 69 1010.8
20260507234705 73 192 0.0 1.0 0.00 1.54 1.54 69 1010.7
20260507234202 73 199 1.0 1.0 0.00 1.54 1.54 68 1010.7
20260507233658 74 192 0.0 1.0 0.00 1.54 1.54 68 1010.6
20260507233157 74 188 0.0 2.0 0.00 1.54 1.54 69 1010.6
20260507232653 74 199 0.0 0.0 0.00 1.54 1.54 69 1010.4
20260507232150 74 192 0.0 1.0 0.00 1.54 1.54 67 1010.6
20260507231647 74 203 0.0 0.0 0.00 1.54 1.54 69 1010.3
20260507231144 74 196 0.0 1.0 0.00 1.54 1.54 70 1010.2
20260507230640 74 187 0.0 1.0 0.00 1.54 1.54 71 1010.0
20260507230133 75 196 0.0 1.0 0.00 1.54 1.54 69 1010.2
20260507225632 75 195 0.0 1.0 0.00 1.54 1.54 70 1010.1
20260507225129 76 195 0.0 1.0 0.00 1.54 1.54 67 1010.2
20260507224624 77 186 0.0 1.0 0.00 1.54 1.54 67 1010.0
20260507224121 77 198 1.0 1.0 0.00 1.54 1.54 66 1010.1
20260507223617 77 192 0.0 1.0 0.00 1.54 1.54 63 1010.0
20260507223114 77 186 0.0 2.0 0.00 1.54 1.54 62 1010.0
20260507222611 77 191 1.0 1.0 0.00 1.54 1.54 65 1009.5
20260507222108 77 183 0.0 0.0 0.00 1.54 1.54 66 1009.8
20260507221604 77 193 0.0 0.0 0.00 1.54 1.54 70 1009.6
20260507221101 77 193 0.0 1.0 0.00 1.54 1.54 67 1009.8
20260507220558 77 191 0.0 1.0 0.00 1.54 1.54 65 1009.8
20260507220055 78 202 1.0 1.0 0.00 1.54 1.54 61 1009.9
20260507215551 78 207 1.0 1.0 0.00 1.54 1.54 62 1009.8
20260507215050 78 150 0.0 3.0 0.00 1.54 1.54 63 1009.9
20260507214546 77 232 2.0 2.0 0.00 1.54 1.54 61 1010.0
20260507214042 78 201 1.0 2.0 0.00 1.54 1.54 63 1009.8
20260507213539 77 219 0.0 2.0 0.00 1.54 1.54 64 1009.8
20260507213036 78 203 1.0 1.0 0.00 1.54 1.54 63 1009.5
20260507212532 78 200 1.0 2.0 0.00 1.54 1.54 62 1009.6
20260507212029 78 199 0.0 1.0 0.00 1.54 1.54 62 1009.6
20260507211526 78 198 0.0 1.0 0.00 1.54 1.54 67 1009.6
20260507211022 78 193 0.0 1.0 0.00 1.54 1.54 61 1009.6
20260507210519 77 182 1.0 3.0 0.00 1.54 1.54 61 1009.6
20260507210016 78 196 1.0 2.0 0.00 1.54 1.54 67 1009.6
20260507205513 77 187 1.0 2.0 0.00 1.54 1.54 63 1009.6